Tracking 19224 objects as of 22-Jul-2018
HD Live streaming from Space Station
objects crossing your sky now

FENGYUN 1C DEB

Track FENGYUN 1C DEB now!
10-day predictions


NORAD ID: 38127
Int'l Code: 1999-025EPY
Perigee: 745.2 km
Apogee: 838.0 km
Inclination: 99.1 °
Period: 100.5 minutes
Semi major axis: 7162 km
RCS: 0.0063 m2 (small)
Launch date: May 10, 1999
Source: People's Republic of China (PRC)
Launch site: Taiyaun Space Center, China (TSC)

Note: This is SATELLITE DEBRIS
aabbcc
Your satellite tracking list
Your tracking list is empty




NASA's NSSDC Master Catalog

Two Line Element Set (TLE):
1 38127U 99025EPY 18180.72094121  .00000444  00000-0  17838-3 0  9992
2 38127  99.0935   9.7894 0064839 155.8720 204.5523 14.32177718512148
Source of the keplerian elements: AFSPC